GSAT0216 (GALILEO 20)

Last updated on Sat Apr 13 2024 01:02:27 GMT+0100 (British Summer Time)

1 43056U 17079B 24102.72821724 -.00000006 00000+0 00000+0 0 9999 2 43056 55.3755 243.4264 0001901 291.5467 68.3815 1.70474694 39421
UTC large
Height (km)
Speed (km/s)
/
Latitude / Longitude
Inclination (degrees)
Orbital Period (minutes)
Azimuth
Elevation
Range (km)
Doppler Factor

Next 0 passes for location: London (51.5072 / 0.1276)

Sorry there are no passes over London.